This is the latest recevied weather packets stored in our database for station/object N6RDS. If no packets are shown the sender has not sent any weather packets the latest 10 day(s).
| Time | Temp. | Humidity | Pressure | Rain* | Wind** | Luminosity | Snow |
|---|---|---|---|---|---|---|---|
| 1777448222 | 0.56° C | 53% | 1026.9 hPa | 0 mm | - | 0 W/m² | - |
| 1777447918 | 0.56° C | 53% | 1026.9 hPa | 0 mm | - | 0 W/m² | - |
| 1777447615 | 1.11° C | 52% | 1026.8 hPa | 0 mm | - | 0 W/m² | - |
| 1777447310 | 1.67° C | 51% | 1026.9 hPa | 0 mm | - | 0 W/m² | - |
| 1777447009 | 1.67° C | 50% | 1026.8 hPa | 0 mm | - | 0 W/m² | - |
| 1777446706 | 2.22° C | 48% | 1026.8 hPa | 0 mm | - | 0 W/m² | - |
| 1777446401 | 2.22° C | 47% | 1026.9 hPa | 0 mm | - | 0 W/m² | - |
| 1777446099 | 2.22° C | 49% | 1026.9 hPa | 0 mm | - | 0 W/m² | - |
| 1777445795 | 2.22° C | 49% | 1027 hPa | 0 mm | - | 0 W/m² | - |
| 1777445490 | 2.22° C | 48% | 1026.9 hPa | 0 mm | - | 0 W/m² | - |
| 1777445187 | 2.22° C | 48% | 1027 hPa | 0 mm | - | 0 W/m² | - |
| 1777444884 | 2.22° C | 48% | 1026.9 hPa | 0 mm | - | 0 W/m² | - |
| 1777444579 | 2.22° C | 48% | 1027 hPa | 0 mm | - | 0 W/m² | - |
| 1777444277 | 2.22° C | 48% | 1026.9 hPa | 0 mm | - | 0 W/m² | - |
| 1777443973 | 2.22° C | 47% | 1026.8 hPa | 0 mm | - | 0 W/m² | - |
| 1777443669 | 2.78° C | 46% | 1026.9 hPa | 0 mm | - | 0 W/m² | - |
| 1777443368 | 2.78° C | 46% | 1026.9 hPa | 0 mm | - | 0 W/m² | - |
| 1777443067 | 2.78° C | 45% | 1026.8 hPa | 0 mm | - | 0 W/m² | - |
| 1777442764 | 3.33° C | 44% | 1026.8 hPa | 0 mm | - | 0 W/m² | - |
| 1777442459 | 3.33° C | 45% | 1026.8 hPa | 0 mm | - | 0 W/m² | - |
| 1777442156 | 3.33° C | 46% | 1026.6 hPa | 0 mm | - | 0 W/m² | - |
| 1777441851 | 3.33° C | 46% | 1026.6 hPa | 0 mm | - | 0 W/m² | - |
| 1777441547 | 2.78° C | 46% | 1026.9 hPa | 0 mm | - | 0 W/m² | - |
| 1777441243 | 2.78° C | 48% | 1026.9 hPa | 0 mm | - | 0 W/m² | - |
| 1777440938 | 2.78° C | 48% | 1026.9 hPa | 0 mm | - | 0 W/m² | - |
* Rain latest hour (hover to see other rain measurements)
** Current wind speed in m/s (hover to see current wind gust speed)